Home   Weather   Suhl   Past weeks

Flag for Germany Past Weather in Suhl, Thuringia, Germany — Yesterday and Last 2 Weeks

Now
73 °F

Sunny.


Feels Like: 77 °F
Forecast: 54 / 64 °F
Wind: 18 mph from Southwest

Location: Erfurt-Bindersleben

Current Time: Sep 29, 2016 at 3:38:03 PM

Latest Report: Sep 29, 2016 at 2:50 PM


Visibility: 10 mi

Pressure: 29.98 "Hg

Humidity: 47%

Dew Point: 52 °F

Location of SuhlLocation

Past Weather in Suhl — Graph

°F

Suhl Temperature Yesterday

Maximum temperature yesterday: 68 °F (at 11:50 AM)
Minimum temperature yesterday: 50 °F (at 4:20 AM)
Average temperature yesterday: 60 °F

High & Low Weather Summary for the Past Weeks

 TemperatureHumidityPressure
High84 °F (Sep 14, 3:20 PM)100% (Sep 17, 2:20 AM)30.33 "Hg (Sep 17, 2:20 AM)
Low43 °F (Sep 21, 5:50 AM)32% (Sep 14, 5:50 PM)29.89 "Hg (Sep 15, 3:20 PM)
Average60 °F76%30.11 "Hg
* Reported Sep 14 2:20 PM — Sep 29 2:20 PM, Suhl, Weather by CustomWeather, © 2016

Note: Actual official high and low records may vary slightly from our data, if they occured in-between our weather recording intervals... More about our weather records

Advertising

Suhl Weather History for the Previous 24 Hours

Scroll right to see more
 ConditionsComfort  
Time TempWeatherWind HumidityBarometerVisibility
2:20 PM
Thu, Sep 29
73 °FPassing clouds.21 mph53%30.01 "HgN/A
1:50 PM73 °FSunny.21 mph50%30.01 "Hg10 mi
1:20 PM72 °FPassing clouds.23 mph53%30.04 "HgN/A
12:50 PM70 °FSunny.18 mph60%30.04 "Hg10 mi
11:50 AM68 °FSunny.22 mph60%30.07 "Hg10 mi
11:20 AM68 °FSunny.20 mph60%30.09 "Hg10 mi
10:50 AM68 °FSunny.18 mph60%30.09 "Hg10 mi
10:20 AM66 °FSunny.17 mph64%30.12 "Hg10 mi
9:50 AM66 °FPassing clouds.13 mph60%30.12 "HgN/A
9:20 AM63 °FSunny.9 mph68%30.12 "Hg10 mi
8:50 AM61 °FPartly sunny.10 mph72%30.12 "HgN/A
8:20 AM61 °FPartly sunny.9 mph72%30.12 "HgN/A
7:50 AM61 °FSunny.14 mph72%30.12 "Hg10 mi
7:20 AM59 °FSunny.14 mph77%30.15 "Hg10 mi
6:50 AM61 °FClear.15 mph72%30.15 "Hg10 mi
6:20 AM61 °FPassing clouds.17 mph72%30.15 "HgN/A
5:50 AM61 °FPassing clouds.13 mph72%30.15 "HgN/A
5:20 AM61 °FPassing clouds.15 mph72%30.18 "HgN/A
4:50 AM61 °FPassing clouds.16 mph72%30.18 "HgN/A
4:20 AM61 °FPassing clouds.12 mph72%30.18 "HgN/A
3:50 AM59 °FPassing clouds.12 mph77%30.21 "HgN/A
3:20 AM59 °FPassing clouds.13 mph77%30.21 "HgN/A
2:50 AM59 °FClear.14 mph77%30.21 "Hg10 mi
2:20 AM59 °FClear.14 mph77%30.21 "Hg10 mi
1:50 AM59 °FClear.10 mph77%30.24 "Hg10 mi
1:20 AM61 °FClear.13 mph72%30.24 "Hg10 mi
12:50 AM61 °FClear.13 mph72%30.24 "Hg10 mi
12:20 AM61 °FClear.14 mph72%30.24 "Hg10 mi
11:50 PM
Wed, Sep 28
61 °FClear.15 mph72%30.24 "Hg10 mi
11:20 PM61 °FClear.13 mph72%30.24 "Hg10 mi
10:50 PM61 °FClear.10 mph77%30.24 "Hg10 mi
10:20 PM61 °FClear.14 mph77%30.24 "Hg10 mi
9:50 PM61 °FClear.13 mph77%30.24 "Hg10 mi
9:20 PM61 °FClear.9 mph77%30.24 "Hg10 mi
8:50 PM61 °FClear.9 mph77%30.24 "Hg10 mi
8:20 PM63 °FClear.10 mph73%30.24 "Hg10 mi
7:50 PM63 °FClear.9 mph68%30.24 "Hg10 mi
7:20 PM63 °FClear.14 mph68%30.24 "Hg10 mi
6:50 PM64 °FSunny.14 mph64%30.24 "Hg10 mi
6:20 PM66 °FPartly sunny.13 mph60%30.24 "HgN/A
5:50 PM66 °FPartly sunny.15 mph60%30.24 "HgN/A
5:20 PM66 °FPartly sunny.18 mph60%30.24 "HgN/A
4:20 PM66 °FBroken clouds.22 mph60%30.24 "HgN/A
3:50 PM66 °FBroken clouds.23 mph64%30.24 "HgN/A
3:20 PM66 °FPartly sunny.24 mph60%30.24 "HgN/A
Weather by CustomWeather, © 2016

See weather overviewHow to use our weather pages